Lapse_Rate
7.3 7.3 7.3 7.3 7.3 7.3 7.0 6.8 6.7 6.5 6.4 6.5 6.5 6.5 6.5 6.7 6.8 6.8 6.8 6.8 6.6 6.6 6.7 6.8 6.8 6.9 6.9 6.9 6.8 6.7 6.6 6.5
7.1 7.4 7.5 7.5 7.5 7.5 7.3 7.2 6.8 6.6 6.3 6.3 6.4 6.4 6.4 6.5 6.6 6.7 6.6 6.5 6.4 6.4 6.5 6.5 6.6 6.6 6.6 6.6 6.6 6.5 6.5 6.5
7.3 7.4 7.8 7.7 7.7 7.7 7.6 7.4 7.1 6.7 6.4 6.3 6.4 6.3 6.3 6.3 6.4 6.4 6.4 6.4 6.5 6.6 6.6 6.6 6.6 6.5 6.4 6.2 6.2 6.2 6.3 6.5
7.6 7.6 7.8 7.9 8.1 8.2 8.0 7.7 7.3 6.8 6.5 6.5 6.5 6.5 6.5 6.4 6.2 6.1 6.2 6.4 6.4 6.4 6.5 6.5 6.4 6.3 6.1 6.0 6.0 5.9 6.0 6.0
7.8 7.8 7.8 8.0 8.2 8.3 8.2 7.8 7.3 6.9 6.7 6.6 6.6 6.5 6.5 6.5 6.3 6.2 6.2 6.3 6.3 6.5 6.5 6.3 6.2 5.9 5.8 5.8 6.0 6.2 6.2 6.1
7.9 7.9 7.8 7.8 8.1 8.2 8.1 7.8 7.4 7.1 6.8 6.6 6.7 6.7 6.6 6.5 6.2 6.0 6.0 6.0 6.1 6.2 6.2 6.2 6.1 6.1 6.1 6.2 6.2 6.1 6.0 5.9
7.7 7.9 8.1 8.1 8.1 8.0 7.9 7.6 7.1 6.9 6.7 6.6 6.7 6.9 6.7 6.8 6.3 5.9 5.9 6.0 6.1 6.1 6.0 5.9 5.8 5.9 6.0 5.9 5.8 5.8 5.7 5.6
7.8 8.2 8.5 8.4 8.1 8.1 7.8 7.3 6.8 6.4 6.5 6.5 6.6 6.5 6.5 7.0 6.2 5.9 5.7 5.7 5.7 5.9 5.9 5.9 6.0 5.9 5.8 5.8 5.8 5.6 5.6 5.7
7.8 8.0 8.3 8.5 8.2 8.1 7.6 7.0 6.3 6.1 6.2 6.7 6.4 6.2 6.0 6.4 6.0 5.8 5.6 5.6 5.6 5.6 5.7 5.8 6.0 6.0 5.9 5.8 5.7 5.7 5.7 5.7
7.7 8.0 8.1 7.1 6.9 6.7 6.4 6.1 5.9 6.2 6.0 5.9 5.6 5.2 5.2 6.3 5.9 5.7 5.7 5.4 5.4 5.5 5.7 5.8 6.1 5.9 5.8 5.7 5.7 5.8 5.7 5.7
7.9 8.2 8.0 6.9 6.1 5.9 5.9 6.0 6.0 6.0 6.1 6.1 5.5 5.1 5.9 5.9 5.9 5.8 5.8 5.9 5.9 5.8 5.9 6.0 6.0 5.9 5.8 5.8 5.8 5.6 5.5 5.7
7.4 7.4 6.8 6.2 5.7 5.7 5.7 5.7 5.8 5.8 5.5 5.0 5.3 5.5 5.5 5.5 5.5 6.0 6.2 6.0 6.1 6.1 6.2 6.1 6.0 6.0 5.8 5.9 5.7 5.7 5.9 6.0
5.9 5.5 5.2 5.2 5.6 5.8 5.7 5.8 5.7 5.2 4.9 5.3 5.4 5.0 5.2 5.6 6.3 6.3 6.3 6.3 6.0 6.1 6.0 6.1 6.3 6.2 6.0 5.9 5.9 6.1 6.4 6.3
5.4 5.2 5.3 5.8 5.8 6.2 6.1 5.9 5.9 5.6 5.4 5.5 5.5 5.8 5.9 6.3 6.2 6.4 6.3 6.0 5.8 5.8 6.0 6.3 6.3 6.2 6.1 6.2 6.4 6.4 6.3 6.4
6.0 5.7 5.7 5.9 5.8 5.9 5.9 5.7 5.5 5.3 5.3 5.4 5.4 5.8 6.4 6.3 6.1 6.0 5.8 5.7 5.8 6.0 6.2 6.3 6.1 6.1 6.1 6.3 6.3 6.4 6.5 6.7
6.8 6.7 6.4 6.4 6.6 6.6 5.9 5.8 5.8 5.8 5.8 5.8 6.2 6.2 6.2 6.0 5.9 5.9 6.0 6.1 6.2 6.3 6.4 6.3 6.2 6.3 6.3 6.4 6.5 6.6 6.9 7.0
7.3 7.4 7.3 7.1 6.8 6.6 6.7 6.4 6.2 6.3 6.3 6.0 6.0 6.4 6.0 6.0 5.9 6.2 6.3 6.4 6.5 6.4 6.3 6.4 6.5 6.5 6.4 6.4 6.9 7.1 7.0 7.0
7.9 7.9 7.8 7.3 7.6 7.3 7.0 6.6 6.4 6.2 6.1 6.2 6.1 6.0 5.9 6.1 6.3 6.3 6.2 6.3 6.2 6.3 6.5 6.4 6.4 6.3 6.3 6.7 7.1 7.1 7.1 7.0
8.1 8.1 8.0 7.7 7.7 7.8 7.4 6.8 6.4 6.0 6.4 6.6 6.2 5.8 6.0 6.0 6.2 6.3 6.2 6.1 6.2 6.4 6.3 6.1 6.1 6.2 6.5 7.0 7.1 7.0 7.0 6.9
Wind_Speed
15 13 13 14 13 12 10 8 9 8 7 7 5 6 6 11 11 12 15 14 14 12 9 9 9 4 4 3 4 3 4 7
6 10 12 12 12 13 13 12 10 9 7 7 6 5 4 4 8 13 14 14 13 11 8 7 7 5 4 5 3 5 8 8
9 12 14 17 16 14 12 12 11 7 6 3 4 5 4 4 7 11 13 13 12 11 7 5 6 4 6 6 5 3 4 7
12 15 16 15 16 15 13 11 10 7 7 8 6 8 4 4 4 5 8 13 12 12 11 9 6 4 5 5 5 7 5 5
11 14 15 16 14 10 11 10 9 8 8 11 13 8 8 2 4 5 6 12 11 12 12 10 8 6 6 5 6 5 5 6
16 16 14 11 13 12 10 11 9 9 8 12 9 9 8 7 6 8 7 7 11 12 11 10 8 6 4 5 5 6 5 5
8 9 13 11 10 11 11 11 8 8 9 10 13 15 12 9 6 6 5 5 4 9 10 9 8 6 4 4 6 10 8 7
12 16 15 15 15 13 11 13 11 10 11 11 12 12 11 12 8 6 6 5 4 4 7 5 4 8 9 10 8 8 7 6
7 9 12 15 14 13 13 13 12 10 12 12 11 11 7 7 7 6 5 5 4 7 6 8 9 11 11 13 6 6 6 5
8 10 11 14 13 12 14 15 13 12 12 11 11 10 10 10 9 8 6 6 6 7 8 8 12 14 13 10 6 7 6 6
5 8 12 9 10 12 13 13 14 13 12 11 9 10 10 11 9 9 9 8 6 6 6 9 11 13 12 8 5 6 6 5
7 6 5 8 10 11 10 11 13 11 11 11 11 9 10 10 9 9 9 7 6 6 9 10 10 9 7 6 5 7 7 7
8 7 6 5 8 10 11 9 10 10 10 12 11 10 9 10 9 10 9 8 8 6 9 9 8 8 5 6 7 7 7 8
12 7 6 5 5 2 7 9 10 9 9 10 10 9 9 10 10 9 9 9 8 8 9 10 8 5 5 5 7 7 7 7
11 14 13 11 8 6 6 7 9 10 10 10 9 8 9 9 9 10 9 8 8 8 9 9 5 4 6 7 8 7 5 5
12 12 11 14 18 15 13 11 10 10 10 9 8 7 8 9 9 10 9 9 8 7 7 7 5 5 5 5 7 5 6 7
15 15 15 16 14 12 12 12 12 11 10 10 9 9 9 9 9 9 9 9 8 7 7 7 5 4 10 12 8 6 8 9
15 17 16 16 16 15 15 14 14 13 11 10 9 8 9 10 10 9 8 9 8 7 6 5 3 3 12 12 13 7 7 8
13 13 14 16 15 15 14 14 15 14 14 12 10 9 9 9 10 9 7 7 7 7 6 5 4 5 11 11 13 7 7 8
Wind_Direction
192 170 163 158 155 156 153 153 145 138 131 120 105 107 101 110 106 103 100 93 85 79 68 60 50 50 30 20 37 10 7 346
165 156 153 147 153 158 162 154 159 146 144 140 134 127 116 88 91 98 92 88 81 78 71 59 53 55 34 26 5 21 24 4
163 161 162 172 167 164 160 163 160 160 150 126 116 130 97 92 95 81 81 78 78 76 72 62 47 48 39 25 23 11 25 23
177 176 176 169 170 166 163 158 157 146 124 119 100 101 90 91 79 79 72 79 73 72 67 63 51 48 46 34 27 33 44 16
177 174 176 175 166 147 141 143 140 137 144 137 141 138 132 113 110 107 92 84 79 76 73 69 61 51 46 37 33 43 46 43
186 181 165 154 143 136 135 136 134 140 137 140 130 116 115 118 111 99 84 72 75 77 77 70 63 53 44 48 43 39 49 54
143 133 131 131 128 129 132 136 121 125 123 130 131 131 133 125 118 112 106 95 81 76 80 74 72 62 53 49 52 56 48 44
140 143 144 140 137 132 128 125 120 124 120 119 124 127 127 125 127 123 117 103 90 80 82 78 67 60 50 52 60 49 40 41
93 128 136 136 132 133 128 125 118 117 118 114 116 117 124 115 118 118 111 107 103 92 88 81 70 62 60 61 49 39 38 34
105 118 131 136 133 131 132 128 124 121 120 118 116 124 126 120 114 115 117 112 102 95 85 77 71 63 55 60 47 31 27 22
86 142 142 133 134 132 131 132 132 130 128 124 124 126 124 118 119 119 108 102 105 94 87 84 76 65 52 42 46 23 27 20
35 16 76 124 126 127 128 128 129 130 126 127 123 127 121 116 123 116 113 109 104 97 99 90 80 65 51 44 32 29 33 31
56 53 57 105 128 135 128 134 129 131 136 130 126 125 125 126 120 120 116 110 105 99 105 92 83 81 68 55 38 27 32 31
112 63 45 50 60 107 136 141 138 133 130 123 127 135 132 123 121 116 111 112 109 96 101 97 95 105 81 63 39 35 31 32
167 160 189 170 166 187 159 152 149 142 133 132 133 130 130 125 116 111 108 100 93 88 106 107 108 98 84 60 37 38 28 33
194 199 189 192 186 168 163 162 149 139 130 127 123 121 112 110 111 107 103 96 86 92 98 89 85 65 64 92 41 35 37 31
206 196 190 193 187 169 157 149 143 137 132 129 131 118 118 118 112 106 105 100 97 91 83 79 59 71 58 51 51 41 35 26
211 204 192 184 180 166 160 150 141 135 129 129 121 119 124 122 121 116 109 105 105 94 85 83 65 15 53 53 44 42 42 24
230 201 182 177 169 157 148 148 136 135 132 130 124 128 138 132 116 113 105 112 110 104 95 87 63 44 45 65 47 41 48 21